Regional Weather Roundup
Issued by NWS Upton, NY

Current Version | Previous Version | Graphics & Text | Print | Product List | Glossary Off
Versions: 1 2 3 4 5 6 7 8 9 10 11 12 13 14 15 16 17 18 19 20 21 22 23 24 25 26 27 28 29 30 31 32 33 34 35 36 37 38 39 40 41 42 43 44 45 46 47 48 49 50

000
ASUS41 KOKX 300607
RWROKX

REGIONAL WEATHER ROUNDUP
NATIONAL WEATHER SERVICE NEW YORK NY
200 AM EDT MON MAR 30 2015

NOTE: "FAIR" INDICATES FEW OR NO CLOUDS BELOW 12,000 FEET WITH NO
SIGNIFICANT WEATHER AND/OR OBSTRUCTIONS TO VISIBILITY.

NYZ071-072-176-178-NJZ106-104-300700-
NEW YORK CITY METRO AREA


CITY           SKY/WX    TMP DP  RH WIND       PRES   REMARKS
CENTRAL PARK   MOCLDY    39  11  31 SW9       30.10F WCI  33
LAGUARDIA APRT MOCLDY    39  12  33 SW10      30.08F WCI  32
KENNEDY INTL   CLOUDY    36  18  48 SW10      30.10F WCI  28
NEWARK/LIBERTY MOCLDY    36  14  40 S10       30.08F WCI  28
BRNX BOT. GARD   N/A    N/A N/A N/A SW6       30.08F
TETERBORO      MOCLDY    36  13  38 S7        30.07F WCI  30
$$

NYZ177-179-078>081-300700-
LONG ISLAND NEW YORK

CITY           SKY/WX    TMP DP  RH WIND       PRES   REMARKS
FARMINGDALE    CLOUDY    36  19  50 SW6       30.10F WCI  31
ISLIP          MOCLDY    36  25  64 SW10      30.08F WCI  28
SHIRLEY        PTCLDY    37  27  67 SW7       30.11F WCI  32
WESTHAMPTON    PTCLDY    35  27  72 SW7       30.12F WCI  29
MONTAUK POINT    N/A     37  28  70 SW8       30.11F WCI  31
$$

NYZ052-065-067-300700-
HUDSON VALLEY

CITY           SKY/WX    TMP DP  RH WIND       PRES   REMARKS
WHITE PLAINS   MOCLDY    36  12  37 SW3       30.05F
NEWBURGH       CLOUDY    36  10  35 CALM      30.04F
MONTGOMERY     PTCLDY    32  15  49 SW6       30.01F WCI  26
POUGHKEEPSIE   FAIR      29  20  69 CALM      30.03F
ALBANY         CLOUDY    35   8  32 SE7       29.95F WCI  29
$$

NJZ001-105-106-008-010-013-015-019>022-104-300700-
NEW JERSEY

CITY           SKY/WX    TMP DP  RH WIND       PRES   REMARKS
NEWARK/LIBERTY MOCLDY    36  14  40 S10       30.08F WCI  28
TETERBORO      MOCLDY    36  13  38 S7        30.07F WCI  30
CALDWELL       MOCLDY    36  11  35 SW5       30.07F WCI  32
MORRISTOWN     PTCLDY    36  14  41 CALM      30.07F
SOMERVILLE     MOCLDY    31  19  61 S5        30.06F WCI  26
SUSSEX         MOCLDY    33  14  45 CALM      30.03F
ANDOVER          N/A     35  11  36 S6        30.03F WCI  30
TRENTON        PTCLDY    35  14  42 S9        30.08F WCI  28
MILLVILLE      MOCLDY    36  19  50 S5        30.11F WCI  32
ATLANTIC CITY  PTCLDY    35  24  64 S7        30.13F WCI  29
WRIGHTSTOWN    MOCLDY    33  17  53 SW10      30.07F WCI  24
TOMS RIVER     MOCLDY    30  19  64 S5        30.11F WCI  25
BELMAR         MOCLDY    34  12  40 S7        30.09F WCI  28
$$

PAZ047>061-062-071-300700-
EASTERN PENNSYLVANIA

CITY           SKY/WX    TMP DP  RH WIND       PRES   REMARKS
PHILADELPHIA   CLOUDY    38  16  40 S8        30.10F WCI  32
ALLENTOWN      CLOUDY    37  14  38 SW6       30.04F WCI  32
SCRANTON       CLOUDY    37   7  28 SW8       29.96F WCI  31
$$

CTZ002-004>006-009-010-012-RIZ004-006-007-MAZ004-011-015-300700-
SOUTHERN NEW ENGLAND
 IN CT

CITY           SKY/WX    TMP DP  RH WIND       PRES   REMARKS
BRADLEY INTL   MOCLDY    30  18  60 S8        30.04F WCI  22
HARTFORD       MOCLDY    32  23  69 S8        30.06F WCI  25
DANBURY        MOCLDY    33  14  45 S6        30.05F WCI  28
WTRBRY/OXFORD  MOCLDY    30  18  59 SW3       30.05F
BRIDGEPORT     MOCLDY    36  29  75 SW8       30.09F WCI  30
MERIDEN        MOCLDY    31  23  72 S5        30.07F WCI  26
NEW HAVEN      PTCLDY    35  29  78 SW6       30.08F WCI  30
CHESTER        FAIR      32  28  86 SW5       30.08F WCI  27
GROTON         PTCLDY    35  28  75 SW13      30.09F WCI  26
WILLIMANTIC    PTCLDY    24  19  81 CALM      30.08F

 IN RI

CITY           SKY/WX    TMP DP  RH WIND       PRES   REMARKS
PROVIDENCE     CLEAR     32  18  56 SW6       30.08F WCI  26
BLOCK ISLAND   CLEAR     36  27  69 SW14      30.09F WCI  27
WESTERLY       CLEAR     33  26  75 VRB3      30.10F

 IN MA

CITY           SKY/WX    TMP DP  RH WIND       PRES   REMARKS
BOSTON         PTCLDY    31  18  58 SW9       30.06F WCI  23
WORCESTER      PTCLDY    28   9  44 SW12      29.99F WCI  18
WESTFIELD      PTCLDY    28  12  51 SW6       30.03F WCI  22
PROVINCETOWN   CLEAR     34  27  75 SW13      30.09F WCI  25
NANTUCKET      CLEAR     34  24  67 SW14      30.12F WCI  25
$$

ANZ330-335-338-340-345-350-353-355-300700-
COASTAL MARINE OBSERVATIONS


STATION/POSITION TIME  SKY/WX   TEMP    WIND        PRES    VSBY  WAVE
                                AIR SEA DIR/SP/G                  HT/PER
                 (UTC)          (F)     (DEG/KT/KT) (MB)    (MI)  (FT/S)
NY HARB ENTRANCE 0550            38 38  230/ 16/ 17 1019.2          3/10
4S FIRE IS       0503               37                N/A           4/10
20S FIRE ISLAND  0450               38              1020.8          3/11
23SW MTP         0550                                 N/A           4/11
HUDSON CANYON    NOT AVBL
EXECUTION ROCKS  NOT AVBL
WESTERN LI SOUND NOT AVBL
CENTRAL LI SOUND NOT AVBL
EASTERN LI SOUND NOT AVBL
ROBBINS REEF     0500            38     230/ 13/ 19 1018.8
$$


>>>>>>>>>>>>>>>>>>>>>>>>>>>> KEY <<<<<<<<<<<<<<<<<<<<<<<<<<<
>                                                          <
>     SKY/WX - SKY CONDITION/PRESENT WEATHER               <
>     TMP    - TEMPERATURE IN FAHRENHEIT                   <
>     DP     - DEWPOINT IN FAHRENHEIT                      <
>     RH     - RELATIVE HUMIDITY IN PERCENT                <
>     WIND   - DIRECTION AND SPEED IN MPH                  <
>     PRES   - MEAN SEA LEVEL PRESSURE IN INCHES OF HG     <
>     WCI    - WIND CHILL INDEX                            <
>     VSB    - VISIBILITY IN MILES                         <
>     HX     - HEAT INDEX                                  <
>     TC     - TEMPERATURE IN CELSIUS                      <
>     VRB    - VARIABLE WIND DIRECTION                     <
>                                                          <
>>>>>>>>>>>>>>>>>>>>>>>>>>>> KEY <<<<<<<<<<<<<<<<<<<<<<<<<<<




USA.gov is the U.S. government's official web portal to all federal, state and local government web resources and services.